Погода Верхотурье

Погода Верхотурье : погода сейчас, прогноз погоды и архив. Всё, что Вы хотите узнать о погоде Верхотурье!

Хотите узнать прогноз погоды Верхотурье? Тогда Вам сюда: Погода Верхотурье

Поиск расширенной информации на нашем сайте:

Другие новости

Новости СМИ2

Главная страница сайта

Новости сайта

03.07.2017

Напоминаем, что на нашем специализированном сайте Метеоцентр.Азия вы можете получить высокодетализированные автоматические прогнозы погоды по пунктам России, СНГ и мира в авиационном формате (включающие направление и скорость ветра, видимость, явления погоды, количество и форму облачности, нижнюю и верхнюю границу облачности).

Рекомендуем: Кольчуг цветмет цены.

Погода Верхотурье - сегодня

Время (UTC), дата Ветер
(°,м/с) 
Видим.   Явления Облачность Т
(°С)
Тd
(°С)
f(%) Тe
(°С)
Pmin
(гПа)
dP
(гПа)
Po
(мм)
O2
(г/м3)
Тmin Tmax R s Состояние
почвы
00 16.08.18 270 (З) 20000 м    3/0 средняя, верхняя 
[Ac trans|Ci fib]
+9.6 +8.5 93 +10  1013.2  0.5  749  290           
03 16.08.18 290 (З) 20000 м    1/0 средняя 
[Ac trans]
+13.6 +10.6 82 +17  1013.4  0.4  749  285  +8.1        сухая 
06 16.08.18 280 (З) 20000 м    8/3 600 м средняя, верхняя 
[Cu hum|Ac trans|Ci sp]
+20.2 +9.9 52 +21  1012.2  -0.9  748  279           
09 16.08.18 240 (ЮЗ) 20000 м    10/5 300 м кучево-дожд., средняя 
[Cb calv|Ac As]
+18.8 +10 57 +21  1011.9  -0.3  748  280           
12 16.08.18 060 (СВ) 20000 м  слаб. ливневой дождь  10/8 300 м кучево-дожд., средняя 
[Cb calv|As op]
+14.2 +12.6 90 +20  1011.3  -0.9  747  284           
18 16.08.18 070 (В) 20000 м  {ливн. осадки, морось}  10/8 300 м средняя 
[St|As op]
+14.1 +13.1 94 +21  1007.5  -1.6  744  283           
21 16.08.18 020 (С) 4000 м  ливневой дождь  10/10 300 м кучево-дожд. 
[Cb calv]
+13.7 +12.9 95 +19  1006.3  -1.2  744  283           
00 17.08.18 360 (С) 10 км  слаб. ливневой дождь  10/10 300 м кучево-дожд. 
[Cb calv]
+12.5 +11.4 93 +15  1007  0.6  744  285           
03 17.08.18 330 (СЗ) 20000 м  {ливн. осадки}  10/10 300 м кучево-дожд. 
[Cb calv]
+12.5 +11.2 92 +15  1008.5  1.4  745  285  +12.3    10    влажная 
06 17.08.18 330 (СЗ) 20000 м  слаб. ливневой дождь  10/9 300 м кучево-дожд., средняя 
[Cb calv|As op]
+13.2 +11.5 89 +16  1009.5  746  285           
09 17.08.18 310 (СЗ) 20000 м  слаб. ливневой дождь  10/8 300 м кучево-дожд., средняя 
[Cb calv|As op]
+12.8 +11.2 90 +16  1011.3  1.7  747  285           
12 17.08.18 280 (З) 20000 м  {ливн. осадки}  9/5 300 м кучево-дожд., средняя 
[Cb calv|Ac und]
+14.1 +10.6 79 +16  1012.4  1.2  748  285           
18 17.08.18 290 (З) 20000 м  {ливн. осадки}  4/3 300 м кучево-дожд., средняя 
[Cb calv|Ac trans]
+10.1 +8.6 90 +11  1014.4  749  290           
21 17.08.18 300 (СЗ) 20000 м    8/3 300 м кучево-дожд., средняя, верхняя 
[Cb calv|Ac trans|Ci fib]
+9.8 +8 89 +10  1014.6  0.2  750  290           
00 18.08.18 290 (З) 20000 м    8/3 600 м средняя, верхняя 
[Sc|Ac und|Ci fib]
+8.7 +7 89 +9  1015.7  750  292           
03 18.08.18 330 (СЗ) 20000 м    9/3 600 м средняя, верхняя 
[Sc|Ac und|Ci sp]
+10.4 +7.9 84 +10  1017.2  1.6  752  290  +8.6        влажная 
06 18.08.18 300 (СЗ) 20000 м    9/4 300 м кучево-дожд., средняя, верхняя 
[Cb calv|Ac trans|Ci fib]
+14.6 +8.9 69 +15  1017.6  0.6  752  286           
09 18.08.18 330 (СЗ) 20000 м  {ливн. осадки}  6/3 300 м кучево-дожд., средняя 
[Cb calv|Ac trans]
+16.1 +8.8 62 +16  1017.9  0.3  752  285           
12 18.08.18 310 (СЗ) 20000 м  {ливн. осадки}  8/4 300 м кучево-дожд., средняя, верхняя 
[Cb calv|Ac trans|Ci fib]
+16.5 +7.9 57 +17  1017.9  752  285           
18 18.08.18 260 (З) 20000 м  {ливн. осадки}  9/4 300 м кучево-дожд., средняя 
[Cb calv|Ac trans]
+11 +8.7 86 +12  1019.8  0.5  753  290           
21 18.08.18 300 (СЗ) 20000 м  в посл. час ливневой дождь  9/6 300 м кучево-дожд., средняя 
[Cb calv|Ac trans]
+10.7 +8.4 86 +12  1020.3  0.5  754  291           
00 19.08.18 310 (СЗ) 10 км  местами туман поземный{ливн. осадки}  3/1 600 м верхняя 
[Sc|Ci fib]
+8 +6.9 93 +9  1021  0.5  754  294           
03 19.08.18 330 (СЗ) 20000 м    1/1 600 м 
[Sc]
+10.2 +7.8 85 +10  1021.7  0.7  755  292  +6.9        влажная 
06 19.08.18 020 (С) 20000 м    6/6 300 м кучево-дожд. 
[Cb calv]
+13.8 +5.6 58 +14  1021.3  -0.2  755  289           
09 19.08.18 050 (СВ) 20000 м    8/8 300 м кучево-дожд. 
[Cb calv]
+15.2 +4.5 49 +15  1020.1  -1.1  754  287           
Время (UTC), дата Ветер
(°,м/с) 
Видим.   Явления Облачность Т
(°С)
Тd
(°С)
f(%) Тe
(°С)
Pmin
(гПа)
dP
(гПа)
Po
(мм)
O2
(г/м3)
Тmin Tmax R s Состояние
почвы

Для получения пояснительной информации подведите курсор к названию столбца.

ПОГОДА Верхотурье - архив

Всё, что Вы хотите узнать о погоде Верхотурье - удобно и подробно!

Выберите нужную дату (начиная с 1 января 2015* года) и нажмите кнопку "Найти".
Будут отображены архивные сводки погоды по пункту Верхотурье, начиная с указанной даты.


Отображать данные в формате CSV (для использования в таблицах Excel)


Внимание! Наш архив погоды предназначен исключительно для личного некоммерческого использования в познавательных целях. Если Вам необходимы официальные справки о состоянии погоды (для производственных, юридических, коммерческих и т.п. целей), обращайтесь в органы Росгидромета.

*Примечание: данная дата относится к архиву по метеостанциям СССР (Россия, СНГ, Балтия).
Архив по метеостанциям Зарубежной Европы и Азии (кроме Китая) хранится 10 дней, по другим регионам земного шара (Китай, Африка, Америка, Австралия, Океания) - 1 день.

Верхотурье - район местоположения метеостанции


Название, широта, долгота, высота метеостанции:
Верхотурье 58.9°ш. 60.8°д. 125 м над ур. моря [Российская Федерация]

Дополнительная информация

В oтличие oт бoльшинства пoгoдных сайтoв мы публикуем пoдрoбную метеoинфoрмацию в детальнoм прoфессиoнальнoм фoрмате.

Характеристики температуры и влажнoсти вoздуха измеряются на высoте 2 м в тени вдали oт зданий и деревьев.
Скoрoсть ветра измеряется на высoте 10 м (на урoвне рoста челoвека скoрoсть ветра ниже в 1.5-2 раза). Если метеoстанция нахoдится в гoрoде или в лесу, тo скoрoсть ветра занижена на 2-4 м/с пo сравнению с oткрытым местoм. Скoрoсть ветра над акватoриями крупных рек и oзёр, а также на вершинах хoлмoв на 2-5 м/с выше, чем в oбычных услoвиях.
Атмoсфернoе давление в разных тoчках местнoсти мoжет значительнo oтличаться oт давления на метеoстанции, в зависимoсти oт услoвий рельефа (при пoдъёме на 10 м давление пoнижается примернo на 1 мм рт.ст.).